Skip Page Navigation
NASA JPL Caltech
NASA Logo - Jet Propulsion Laboratory + View the NASA Portal
+ Center for Near-Earth Object Studies
JPL Home Earth Solar System Stars & Galaxies Technology
JPL Solar System Dynamics
BODIES ORBITS EPHEMERIDES TOOLS PHYSICAL DATA DISCOVERY FAQ SITE MAP
JPL Small-Body Database Browser
Search: [ help ]  
100070 (1992 EX29)
Classification: Main-belt Asteroid          SPK-ID: 2100070
Ephemeris | Orbit Diagram | Orbital Elements | Mission Design | Physical Parameters | Discovery Circumstances | Close-Approach Data ]

[ show orbit diagram ]
Orbital Elements at Epoch 2459200.5 (2020-Dec-17.0) TDB
Reference: JPL 21 (heliocentric ecliptic J2000)
 Element Value Uncertainty (1-sigma)   Units 
e .2273273221687045 3.8778e-08  
a 2.430899580987594 1.1634e-08 au
q 1.878289688780658 9.8003e-08 au
i 9.330287299750117 4.2767e-06 deg
node 152.2788209967685 3.0739e-05 deg
peri 294.0063688514502 3.2877e-05 deg
M 269.731242074511 1.2703e-05 deg
tp 2459547.623423988297
(2021-Nov-29.12342399)
5.0008e-05 TDB
period 1384.359722097176
3.79
9.9382e-06
2.721e-08
d
yr
n .2600480166055638 1.8669e-09 deg/d
Q 2.98350947319453 1.4279e-08 au
  Orbit Determination Parameters
   # obs. used (total)      653  
   data-arc span      10480 days (28.69 yr)  
   first obs. used      1992-02-29  
   last obs. used      2020-11-08  
   planetary ephem.      DE441  
   SB-pert. ephem.      SB441-N16  
   condition code      0  
   norm. resid. RMS      .52826  
   source      ORB  
   producer      Otto Matic  
   solution date      2021-Apr-13 15:30:27  

Additional Information
 Earth MOID = .916415 au 
 Jupiter MOID = 2.29041 au 
 T_jup = 3.454 
[ show covariance matrix ]

Ephemeris | Orbit Diagram | Orbital Elements | Mission Design | Physical Parameters | Discovery Circumstances | Close-Approach Data ]

Physical Parameter Table
Parameter Symbol Value Units Sigma Reference Notes
absolute magnitude H 16.21   n/a E2021B55  

100070 (1992 EX29)          Discovered 1992-Mar-03 by UESAC at La Silla
Reference: 20051019/Numbers.arcLast Updated: 2005-10-26

[ show close-approach data ]
Alternate Designations
 1992 EX29 = 2003 BB29 
Ephemeris | Orbit Diagram | Orbital Elements | Mission Design | Physical Parameters | Discovery Circumstances | Close-Approach Data ]
ABOUT SSD CREDITS/AWARDS PRIVACY/COPYRIGHT GLOSSARY LINKS
FirstGov 2021-Apr-19 10:47 UT
(server date/time)  
NASA Home Page
Site Manager:   Ryan S. Park
Webmaster  Alan B. Chamberlin